User: anonymous   Login
Location: Unspecified
(0.0000°N, 0.0000°E)
Time: 23:11:33
(UTC+00:00)
Language:

DNEPR OBJECT AC - Orbit

View from above orbital plane
View from above orbital plane
View from above satellite
View from above satellite

Ground track
Ground track

The orbit data is extracted from the following two-line orbital elements,

1 39442U 13066AC  21023.57723524  .00000244  00000-0  29680-4 0  9990
2 39442  97.4851  50.5501 0032075 158.9742 201.2804 14.91204111388186
Epoch (UTC): 23 January 2021 13:51:13
Eccentricity: 0.0032075
inclination: 97.4851°
perigee height: 572 km
apogee height: 616 km
right ascension of ascending node: 50.5501°
argument of perigee: 158.9742°
revolutions per day: 14.91204111
mean anomaly at epoch: 201.2804°
orbit number at epoch: 38818

The dashed part of the orbit path shows where the satellite is in the earth's shadow,  

DLR